Regional Weather Roundup
Issued by NWS

Home | Current Version | Previous Version | Text Only | Print | Product List | Glossary Off
Versions: 1 2 3 4 5 6 7 8 9 10 11 12 13 14 15 16 17 18 19 20 21 22 23 24 25 26 27 28

000
ASUS45 KCYS 200110
RWRWY

WYOMING REGIONAL WEATHER ROUNDUP
NATIONAL WEATHER SERVICE CHEYENNE WY
700 PM MDT TUE SEP 19 2017

NOTE:  "FAIR" INDICATES FEW OR NO CLOUDS BELOW 12,000 FEET
WITH NO SIGNIFICANT WEATHER AND/OR OBSTRUCTIONS TO VISIBILITY.

WYZ001-200200-
YELLOWSTONE NATIONAL PARK

CITY           SKY/WX    TMP DP  RH WIND       PRES   REMARKS
LK YELLOWSTONE   N/A     29  27  92 CALM      29.87R
W YELLOWSTONE  NOT AVBL

$$
WYZ002>013-054>058-071-098>099-200200-
NORTHERN WYOMING

CITY           SKY/WX    TMP DP  RH WIND       PRES   REMARKS
JACKSON        MOCLDY    41  26  55 SW12G24   29.89R
CODY           LGT RAIN  42  34  73 W12G22    29.83R
GREYBULL       FAIR      51  36  56 SE3       29.73R
WORLAND        CLOUDY    47  40  76 S8        29.75S
SHERIDAN       FAIR      46  37  71 SW9       29.73S
BUFFALO        FAIR      44  37  76 SW6       29.78R
GILLETTE       FAIR      43  40  89 W8        29.76R
HULETT         LGT RAIN  45  43  93 SW5       29.76R
NEWCASTLE      MOCLDY    46  37  71 NW18      29.79R

$$
WYZ014>020-022>026-101>103-200200-
CENTRAL WYOMING

CITY           SKY/WX    TMP DP  RH WIND       PRES   REMARKS
BIG PINEY      CLOUDY    38  30  73 NW16      29.96R WCI  29
PINEDALE       CLOUDY    37  28  70 W17       29.96R WCI  28
DUBOIS         FAIR      36  27  69 NW10G17   29.85R WCI  28
LANDER           N/A    N/A N/A N/A MISG      29.83R
RIVERTON       FAIR      47  30  51 W16       29.82R
CASPER         FAIR      47  35  63 SW20G25   29.80R
DOUGLAS        FAIR      49  29  46 W16G25    29.80R

$$
WYZ021-027>030-104>119-200200-
SOUTHERN WYOMING

CITY           SKY/WX    TMP DP  RH WIND       PRES   REMARKS
EVANSTON       FAIR      45  28  51 SW14      29.98R
KEMMERER         N/A     39  32  75 NW12G17   29.97R WCI  32
FORT BRIDGER   MOCLDY    45  34  67 W7        30.00S
ROCK SPRINGS   FAIR      42  31  64 W18       29.95S
DIXON          CLOUDY    37  35  92 E7        30.03S WCI  31
RAWLINS        CLOUDY    38  32  79 W21G26    29.94R WCI  28
SARATOGA       CLOUDY    34  34 100 S13G18    29.99R WCI  25
LARAMIE        CLOUDY    43  26  51 NW17      29.95R
CHEYENNE       FAIR      47  28  47 NW30G56   29.77F
TORRINGTON     FAIR      52  32  46 W24G38    29.76F
PINE BLUFFS    FAIR      50  30  46 NW25G32   29.82R

$$




USA.gov is the U.S. government's official web portal to all federal, state and local government web resources and services.